RH
55 52 49 48 47 42 37 33 36 35 26 22 20 15 16 15 11 10 8 9 66 21 9 10 27 74 100 100 100 100 100 100 100 100 100 76 27 13 15 22 30 38 25 26 28 22 17 18 17
56 56 61 46 50 39 36 35 33 26 24 20 18 17 12 10 9 10 9 21 19 43 76 51 100 100 89 92 100 100 100 100 99 90 97 94 86 32 15 18 28 42 45 40 26 24 22 24 21
54 61 53 54 38 37 34 34 26 23 22 18 16 13 10 8 8 7 30 79 30 78 92 100 100 73 89 100 89 100 100 100 95 75 66 66 90 79 25 24 48 40 38 58 39 27 26 26 23
47 61 67 45 41 40 52 35 32 25 19 14 11 10 8 7 9 14 90 89 39 68 100 100 87 79 92 84 96 100 100 100 84 86 52 51 58 44 21 18 25 26 26 59 42 26 27 28 26
67 76 49 67 66 55 44 32 32 23 16 11 9 8 10 10 24 20 98 72 20 70 100 100 75 98 100 100 100 100 97 100 100 64 68 77 41 26 21 15 16 18 20 22 25 24 27 27 25
88 66 93 98 53 62 69 34 24 17 13 10 8 11 36 91 67 30 95 97 67 99 100 100 100 100 100 86 100 100 86 100 98 100 88 68 56 92 79 66 58 57 35 33 60 42 46 45 39
81 81 78 45 55 92 59 31 22 15 11 10 13 40 100 87 76 83 100 100 100 100 100 100 100 100 100 100 100 100 100 100 100 100 98 73 97 100 100 100 100 97 85 82 90 74 68 67 56
72 55 39 55 97 84 65 33 18 13 13 16 23 100 100 90 84 72 94 100 100 100 100 100 100 100 100 100 100 100 100 98 97 100 100 76 98 90 79 68 62 70 56 76 99 100 98 100 94
69 57 51 85 81 89 53 22 15 19 23 28 42 90 100 82 67 84 100 91 100 72 100 100 100 100 100 100 100 100 100 100 94 100 100 97 95 97 93 100 80 57 55 79 98 100 100 100 94
78 52 62 55 85 92 32 21 13 31 45 50 80 98 100 80 94 91 100 99 100 99 100 100 100 100 99 100 100 100 100 100 97 100 97 100 100 100 100 97 84 100 75 90 99 98 93 81 81
60 58 45 63 90 56 25 32 14 40 56 57 94 100 99 66 86 88 100 100 97 98 100 100 100 100 100 100 100 100 100 100 91 100 100 100 100 95 78 94 100 100 100 100 74 66 70 54 67
70 73 82 93 60 58 31 30 20 46 90 81 56 100 100 84 84 80 96 100 100 97 95 98 100 96 100 100 100 100 100 100 100 100 100 100 100 100 92 100 98 100 100 100 100 73 75 74 87
47 72 75 71 60 44 55 30 31 71 97 91 99 90 100 98 77 68 76 100 94 85 100 85 100 96 100 80 100 100 100 100 100 100 100 100 100 100 93 100 68 94 96 96 100 100 99 100 100
42 63 75 69 64 48 72 24 40 100 80 86 93 98 94 100 82 53 57 94 100 100 100 100 100 100 100 100 100 100 100 100 100 100 100 100 100 100 100 85 79 71 47 70 62 95 99 99 100
41 42 61 58 55 65 76 26 34 79 80 69 50 72 70 64 69 50 44 64 84 86 95 100 100 100 100 100 100 100 100 100 100 100 100 100 100 92 82 79 94 74 67 58 56 76 83 89 98
54 48 57 54 57 84 63 25 29 77 100 87 64 66 48 40 44 36 31 30 64 66 76 98 100 100 100 100 100 100 100 100 100 98 100 100 100 100 100 100 79 76 56 39 40 79 87 84 84
57 40 43 53 67 88 76 32 24 48 100 96 83 73 55 44 42 45 33 40 48 60 72 93 100 100 100 100 100 100 100 100 100 100 100 99 98 100 100 100 100 94 73 64 84 78 67 86 71
63 38 38 65 75 99 94 30 24 50 54 87 84 87 58 50 48 48 62 55 47 46 82 87 100 100 92 100 100 100 100 100 100 100 100 100 93 100 100 100 100 84 92 74 100 78 91 82 91
60 37 49 67 95 100 97 33 24 41 58 66 72 73 98 92 82 45 50 70 58 69 100 100 71 100 100 100 100 100 100 100 100 100 100 100 100 100 100 99 88 75 100 100 81 90 88 94 97
45 37 67 66 83 100 92 39 23 44 63 70 99 97 98 98 85 74 56 76 92 100 100 100 100 100 91 89 100 90 100 100 100 98 98 100 100 98 98 99 79 93 100 100 100 100 100 100 100
41 45 50 55 100 100 94 39 25 38 56 45 60 65 80 80 57 70 65 85 86 100 100 98 100 95 99 100 100 100 94 91 89 100 82 99 100 75 78 96 100 100 100 95 94 98 100 100 100
50 52 54 63 93 100 89 46 25 30 56 50 51 76 82 91 65 55 76 97 100 96 100 100 100 86 96 100 100 100 96 97 99 99 100 100 100 90 98 87 80 84 87 78 80 76 79 79 73
68 77 92 57 82 90 94 54 26 28 50 46 62 71 88 77 61 57 49 80 94 100 100 100 93 98 80 67 76 82 87 87 86 85 84 84 95 85 97 91 85 70 62 59 59 57 53 53 59
72 90 98 65 47 50 86 62 28 28 30 54 60 76 94 79 80 63 68 60 58 77 91 100 100 100 100 100 100 98 95 98 92 91 81 68 91 91 80 73 61 57 53 58 56 51 51 47 44
81 96 92 81 65 78 100 62 33 31 29 34 51 65 95 88 78 79 88 73 73 53 55 66 80 94 100 97 87 89 100 100 91 76 80 67 61 60 55 51 48 48 49 48 50 51 51 48 48
97 82 100 75 70 93 100 75 33 30 34 29 31 46 56 61 88 88 66 72 70 73 56 61 74 95 100 100 99 100 100 100 93 87 65 67 51 44 47 57 56 55 61 60 58 61 51 48 54
99 68 95 59 100 95 100 89 37 34 32 30 27 31 53 62 56 55 58 55 60 67 76 73 58 56 77 79 75 73 67 57 55 52 49 45 55 79 95 98 84 70 65 54 36 30 35 43 58
87 84 67 65 100 66 100 100 42 38 41 32 30 29 33 53 75 68 56 72 68 63 61 57 76 74 64 50 41 38 42 54 47 43 55 97 74 66 90 99 100 86 86 60 58 72 70 75 98
66 76 70 94 70 88 100 100 53 43 58 51 34 28 28 30 35 48 68 83 74 67 62 55 59 56 58 60 60 100 100 100 100 100 100 100 90 100 100 100 100 100 100 100 100 64 79 100 100
64 70 65 82 64 100 100 100 100 52 78 99 60 33 31 30 32 39 44 47 52 57 58 56 54 68 87 100 100 99 76 100 85 84 100 88 100 100 100 100 100 100 100 86 100 79 100 100 99
Wind_Speed
62 61 64 65 67 67 66 64 63 63 66 66 66 64 65 59 57 56 43 41 37 38 41 46 37 34 31 22 19 25 39 47 51 51 53 59 73 75 76 82 82 84 81 80 78 78 79 79 79
64 66 67 66 66 64 60 57 56 59 61 64 63 66 56 50 48 45 42 36 37 28 28 33 36 36 27 17 25 27 32 39 42 46 46 49 56 65 73 75 79 81 82 84 84 83 81 80 81
64 67 60 56 55 53 53 53 54 53 57 62 59 57 53 46 38 42 35 34 35 37 42 43 39 34 31 35 23 28 27 32 36 42 50 51 48 56 62 71 74 75 78 80 82 82 81 81 81
50 49 51 51 50 48 50 51 50 53 58 60 56 50 47 40 32 36 35 36 36 46 43 42 31 20 26 26 20 24 18 20 24 31 34 36 45 47 53 64 72 72 74 77 77 75 76 77 79
43 46 45 45 46 47 47 48 50 55 60 53 53 48 41 31 34 41 44 40 46 52 52 42 33 26 14 16 19 22 33 33 31 29 29 22 36 43 51 61 65 66 66 66 68 71 72 78 77
42 44 43 44 46 44 52 48 51 55 59 53 47 40 27 32 42 46 43 43 51 59 56 53 48 30 26 17 38 31 55 36 44 40 36 38 35 28 33 39 46 51 58 61 55 61 57 63 68
37 39 43 46 39 46 49 51 54 57 57 48 38 24 33 44 46 48 42 48 52 58 58 68 58 53 47 45 37 38 57 47 47 37 37 41 34 34 33 35 36 40 43 48 52 54 52 54 60
40 42 42 37 43 45 50 54 56 56 55 40 30 31 44 43 48 50 45 44 53 62 66 70 62 60 58 48 54 52 41 60 56 48 44 38 37 40 40 42 41 41 36 40 46 48 49 42 46
39 41 37 38 42 45 51 54 54 49 44 33 32 41 40 45 50 49 44 53 58 69 67 67 66 58 57 57 58 48 45 55 54 51 40 41 44 43 38 30 29 39 38 36 41 39 38 32 36
39 43 37 39 41 48 47 53 52 42 38 28 38 43 45 46 52 49 41 57 65 70 73 61 64 58 52 46 50 55 65 61 56 46 41 37 35 33 27 31 31 31 36 38 39 41 41 41 41
40 37 38 39 43 45 44 55 47 36 32 29 41 43 43 39 44 49 42 53 61 72 63 64 71 59 56 52 55 68 62 62 56 54 49 42 46 54 43 36 31 33 38 43 42 41 42 45 40
37 35 39 42 42 42 42 52 41 25 19 29 36 56 45 38 42 45 41 54 68 74 64 60 64 65 65 57 55 63 58 57 60 49 49 53 53 57 51 47 43 40 42 49 50 48 45 47 49
39 35 38 41 40 38 43 49 37 19 27 36 26 32 31 27 44 42 43 49 68 75 59 60 67 69 68 62 53 56 48 55 60 58 54 56 61 59 52 57 59 54 52 51 52 54 53 51 53
35 36 39 41 41 36 44 46 36 22 33 35 33 26 40 26 37 52 46 45 69 67 65 64 68 69 65 63 63 60 52 57 53 58 58 56 44 51 56 57 55 60 63 65 61 62 58 55 52
39 38 40 42 37 38 41 45 25 33 36 33 40 41 40 31 31 34 52 50 52 56 64 71 67 70 67 66 68 67 62 56 53 57 58 58 59 64 63 60 58 61 60 64 65 66 65 61 61
41 41 41 40 32 37 40 42 33 32 44 34 32 26 36 26 21 25 35 55 55 46 71 66 72 69 67 67 66 66 64 62 58 57 57 54 56 52 55 54 66 66 67 68 70 67 67 68 67
37 40 37 33 32 35 41 45 36 29 34 36 23 23 26 34 32 14 29 39 47 47 40 72 78 78 72 70 66 68 65 64 64 61 66 66 65 57 56 54 56 61 62 64 67 70 73 72 75
37 35 32 33 32 34 40 44 37 24 35 41 34 28 31 35 28 24 19 38 38 41 39 60 81 82 81 74 71 71 69 67 64 67 63 62 70 57 58 61 62 64 65 68 70 75 78 77 80
33 30 30 28 31 35 37 43 37 24 26 27 32 34 24 24 32 35 21 31 40 42 45 49 56 82 81 81 72 71 71 71 71 67 67 66 66 64 59 68 67 66 66 69 73 74 66 65 68
28 28 27 26 27 33 37 39 37 25 24 25 22 21 22 26 26 31 23 21 41 46 50 52 56 55 56 71 72 78 69 62 65 70 72 70 68 64 65 69 72 72 70 63 70 64 63 63 63
26 25 28 24 28 34 34 37 33 24 21 23 22 25 23 25 24 21 19 11 32 46 48 56 59 58 55 55 60 66 72 66 64 61 69 70 69 75 78 71 68 64 68 63 64 67 67 69 71
28 24 27 23 26 32 34 34 33 27 16 19 13 17 14 17 16 21 19 12 16 37 47 45 46 52 48 50 53 53 58 59 57 61 58 65 62 65 58 69 71 64 64 66 62 61 63 65 67
34 25 26 24 23 28 34 31 28 25 17 15 10 14 16 15 11 12 15 17 18 20 28 33 43 46 50 52 48 48 49 52 55 57 54 57 52 57 52 58 57 61 63 64 65 62 64 66 67
37 26 27 24 23 23 31 28 26 22 19 15 12 14 14 14 12 10 12 17 20 25 29 33 32 37 41 40 38 43 43 41 44 46 48 53 51 52 55 60 61 63 67 65 64 65 65 65 65
37 31 29 27 24 23 28 25 25 19 22 13 13 15 16 18 11 11 15 13 12 15 21 29 33 36 38 41 46 45 43 44 46 45 47 49 51 52 56 59 60 62 63 63 63 64 65 64 65
42 35 32 29 26 25 27 24 25 18 18 19 13 12 16 17 17 16 12 15 16 19 19 25 28 31 37 35 36 38 42 44 45 46 48 51 55 54 53 54 57 59 63 66 65 66 61 56 57
46 37 40 32 25 27 28 25 23 18 15 16 17 13 14 17 15 17 19 13 14 15 16 16 17 28 37 37 36 41 45 44 45 47 47 51 42 43 46 50 55 53 59 66 64 56 57 62 65
47 44 39 34 29 25 28 27 21 21 14 16 16 15 11 10 19 22 21 20 18 17 18 20 23 22 20 22 26 24 23 24 27 26 30 31 28 33 39 37 45 56 61 66 67 68 70 74 78
51 48 44 40 31 27 28 27 22 19 18 16 18 12 12 16 9 12 22 27 27 28 27 26 22 20 22 22 22 15 15 16 22 25 23 31 33 33 40 42 51 65 66 67 72 77 77 80 84
55 51 50 42 41 29 30 30 27 19 21 18 20 20 18 17 18 13 12 16 23 28 30 25 22 16 17 23 23 22 20 19 13 19 34 38 44 44 48 59 60 61 69 74 74 81 82 87 87
Wind_Direction
286 285 287 290 290 291 292 290 289 288 288 285 283 282 282 282 279 276 268 260 246 250 246 238 227 217 214 214 236 255 255 258 262 260 260 259 254 250 252 255 256 255 255 258 260 260 259 261 263
286 289 291 292 291 291 290 289 288 290 289 287 285 284 286 280 272 266 257 240 237 218 213 223 207 192 184 207 227 267 269 257 265 263 260 263 260 253 250 253 254 255 257 258 258 261 263 265 266
288 289 289 292 292 289 291 291 292 290 289 289 291 290 283 274 261 258 233 209 203 192 186 200 196 175 175 197 228 274 280 274 278 271 276 274 265 255 251 252 254 256 256 259 260 262 264 267 268
290 289 293 293 293 296 294 292 296 295 294 297 292 285 280 273 257 239 207 207 194 176 186 191 181 168 164 182 228 261 259 275 292 273 273 267 254 251 251 252 251 255 258 260 262 265 267 269 269
287 293 294 293 297 296 298 299 299 298 297 296 295 288 278 270 231 215 198 194 176 170 178 173 156 164 200 221 240 216 266 275 278 283 285 294 275 257 254 255 255 259 263 264 265 265 267 268 270
287 291 293 294 295 302 303 302 299 299 301 301 296 283 253 226 216 208 189 180 169 173 174 178 176 159 184 215 231 215 247 246 259 279 282 286 287 263 254 254 256 260 264 263 265 266 264 268 269
287 293 292 293 302 307 308 309 309 307 305 303 293 249 215 216 210 194 187 177 173 174 171 174 189 181 179 189 206 219 234 241 248 268 280 286 266 259 266 269 266 261 263 265 261 261 261 266 273
289 292 292 298 309 309 311 313 312 311 301 298 272 206 221 212 208 196 188 178 177 181 180 187 198 199 190 190 194 204 223 243 255 260 262 266 258 265 267 277 278 271 276 265 260 263 266 269 276
290 295 296 303 308 312 314 314 316 310 291 285 251 203 217 217 212 193 187 178 177 184 187 192 193 198 187 187 197 214 202 213 246 251 247 248 262 269 273 269 280 284 285 273 261 263 263 265 271
289 297 296 303 313 312 318 317 318 313 279 263 230 210 214 211 209 196 177 182 179 185 185 195 194 196 197 185 199 196 206 219 225 230 237 250 257 253 260 269 270 272 278 261 258 261 264 268 275
292 295 300 313 312 317 322 325 324 311 273 260 222 208 213 205 210 205 196 188 186 185 190 198 199 190 185 189 201 199 212 222 225 226 238 247 256 262 260 262 266 263 270 277 280 274 273 275 279
301 304 311 311 316 320 324 328 323 294 268 237 220 221 225 221 218 206 197 190 188 192 196 200 202 191 190 194 196 198 207 209 216 228 235 249 254 259 259 251 263 263 271 278 279 280 283 284 287
303 297 305 308 316 320 328 331 314 243 227 218 213 215 206 217 222 219 201 191 193 194 196 201 192 196 195 197 198 209 211 215 217 226 233 240 247 258 259 254 257 261 266 276 278 280 282 284 281
308 293 305 309 313 324 329 329 310 222 228 226 205 207 206 194 212 224 216 199 191 196 200 203 205 200 200 212 211 215 215 217 225 227 229 235 255 259 259 258 259 260 261 267 277 278 282 285 288
313 308 305 309 312 320 327 330 310 257 246 244 231 217 217 214 202 228 224 205 201 207 202 202 207 206 211 214 215 217 221 224 233 235 235 248 256 255 257 260 264 265 269 269 273 276 276 280 284
305 314 306 304 310 316 325 330 324 278 253 251 247 235 239 227 246 248 225 228 215 216 206 206 211 215 219 216 221 222 226 235 240 245 247 256 255 263 266 272 266 268 271 273 275 274 274 279 283
303 314 307 305 310 321 325 330 327 284 255 252 290 265 251 246 272 292 236 220 218 208 205 207 215 216 219 220 227 229 232 241 245 247 250 253 258 263 269 273 270 271 273 274 275 275 276 279 281
301 310 305 307 311 322 321 327 322 294 268 253 260 273 256 259 284 296 297 218 217 219 217 212 212 215 219 221 230 232 236 240 247 248 251 251 257 266 268 266 274 276 272 273 273 273 275 276 278
299 304 296 300 310 313 316 325 326 313 267 275 272 267 276 289 290 288 301 224 212 214 220 222 218 217 220 221 230 234 239 243 248 252 254 256 258 266 270 268 273 275 273 278 278 278 277 283 284
291 296 292 297 306 311 315 325 327 314 282 272 272 263 248 264 277 283 288 237 210 209 215 224 231 234 227 232 235 234 239 249 252 257 258 259 262 267 271 273 271 276 276 276 278 280 281 278 275
282 285 286 290 306 307 314 326 329 320 279 278 268 267 269 284 286 265 270 232 216 215 221 226 231 236 240 238 237 240 243 248 249 261 257 259 263 264 266 272 272 274 273 272 273 273 272 273 275
272 279 284 283 295 302 316 326 328 327 293 291 284 261 272 286 284 252 254 215 208 219 226 235 243 238 244 248 250 255 255 254 261 264 265 261 269 270 273 273 274 275 276 278 277 275 276 279 281
262 265 272 276 285 301 308 325 329 329 298 287 286 280 272 278 288 264 249 234 217 217 222 234 239 244 245 253 252 256 262 263 265 265 267 267 272 271 271 275 277 276 279 278 281 283 285 283 282
258 256 261 270 279 293 303 322 332 343 334 287 281 271 279 281 296 299 265 250 251 235 231 232 236 240 245 248 250 257 258 260 265 267 267 270 268 270 272 276 281 285 285 286 286 284 284 285 288
252 248 254 263 272 287 298 320 325 342 350 320 267 241 255 275 278 292 275 250 250 248 245 245 240 240 243 249 253 254 255 261 265 267 269 272 276 279 283 283 284 286 287 287 287 288 288 289 288
247 247 255 258 266 279 288 308 319 340 358 348 316 286 256 253 260 266 264 265 262 260 257 245 248 243 236 243 249 255 260 261 267 273 277 277 287 287 286 288 289 287 285 283 284 285 288 289 293
247 243 247 249 259 268 282 294 309 325 8 357 345 326 285 278 275 267 257 245 254 257 262 265 255 247 248 255 261 264 262 266 273 279 283 281 282 284 286 289 285 288 286 282 282 287 293 298 297
244 243 244 241 253 255 277 284 299 317 339 7 4 359 5 308 279 279 266 269 262 246 252 257 254 252 253 252 254 254 264 281 283 283 283 282 291 298 305 300 285 295 291 291 295 298 299 299 296
246 245 240 239 239 254 264 274 285 302 312 341 358 354 11 23 6 293 281 283 278 273 271 266 260 256 255 265 262 282 291 295 292 288 279 283 292 303 289 269 270 276 282 284 288 292 294 292 293
238 238 241 233 239 245 259 268 273 284 294 304 325 343 358 10 7 340 315 294 286 280 269 263 255 242 240 248 266 271 276 273 281 302 286 277 272 268 268 262 269 270 272 279 285 289 287 289 293